Time,TemperatureF,DewpointF,PressureIn,WindDirection,WindDirectionDegrees,WindSpeedMPH,WindSpeedGustMPH,Humidity,HourlyPrecipIn,Conditions,Clouds,dailyrainin,SolarRadiationWatts/m^2,SoftwareType,DateUTC
2013-10-30 00:00:00,38.3,33.9,29.74,SSW,197,8.1,0.0,84,0.00,CLR,CLR,0.00,0.0,WeatherDisplay:10.37,2013-10-30 07:00:00,
2013-10-30 00:05:00,38.3,33.9,29.74,SSW,197,8.1,0.0,84,0.00,CLR,CLR,0.00,0.0,WeatherDisplay:10.37,2013-10-30 07:05:00,
2013-10-30 00:10:00,38.3,33.9,29.74,SSW,197,8.1,0.0,84,0.00,CLR,CLR,0.00,0.0,WeatherDisplay:10.37,2013-10-30 07:10:00,
2013-10-30 00:15:00,38.3,33.9,29.74,SSW,197,8.1,0.0,84,0.00,CLR,CLR,0.00,0.0,WeatherDisplay:10.37,2013-10-30 07:15:00,
2013-10-30 00:20:00,38.3,33.9,29.74,SSW,197,8.1,0.0,84,0.00,CLR,CLR,0.00,0.0,WeatherDisplay:10.37,2013-10-30 07:20:00,
2013-10-30 00:25:00,38.3,33.9,29.74,SSW,197,8.1,0.0,84,0.00,CLR,CLR,0.00,0.0,WeatherDisplay:10.37,2013-10-30 07:25:00,
2013-10-30 00:30:00,38.3,33.9,29.71,SSW,197,8.1,0.0,84,0.00,CLR,CLR,0.00,0.0,WeatherDisplay:10.37,2013-10-30 07:30:00,
2013-10-30 00:35:00,38.3,33.9,29.71,SSW,197,8.1,0.0,84,0.00,CLR,CLR,0.00,0.0,WeatherDisplay:10.37,2013-10-30 07:35:00,
2013-10-30 00:40:00,38.3,33.9,29.71,SSW,197,8.1,0.0,84,0.00,CLR,CLR,0.00,0.0,WeatherDisplay:10.37,2013-10-30 07:40:00,
2013-10-30 00:45:00,38.3,33.9,29.74,SSW,197,8.1,0.0,84,0.00,CLR,CLR,0.00,0.0,WeatherDisplay:10.37,2013-10-30 07:45:00,
2013-10-30 00:50:00,37.4,33.0,29.74,SSW,197,8.1,0.0,84,0.00,CLR,CLR,0.00,0.0,WeatherDisplay:10.37,2013-10-30 07:50:00,
2013-10-30 00:55:00,37.4,33.0,29.74,SSW,197,8.1,0.0,84,0.00,CLR,CLR,0.00,0.0,WeatherDisplay:10.37,2013-10-30 07:55:00,
2013-10-30 01:00:00,37.4,33.0,29.74,SSW,197,8.1,0.0,84,0.00,CLR,CLR,0.00,0.0,WeatherDisplay:10.37,2013-10-30 08:00:00,
2013-10-30 01:05:00,37.4,33.0,29.74,SSW,197,8.1,0.0,84,0.00,CLR,CLR,0.00,0.0,WeatherDisplay:10.37,2013-10-30 08:05:00,
2013-10-30 01:11:00,37.4,33.0,29.74,SSW,197,8.1,0.0,84,0.00,CLR,CLR,0.00,0.0,WeatherDisplay:10.37,2013-10-30 08:11:00,
2013-10-30 01:16:00,37.4,33.0,29.74,SSW,197,8.1,0.0,84,0.00,CLR,CLR,0.00,0.0,WeatherDisplay:10.37,2013-10-30 08:16:00,
2013-10-30 01:21:00,37.4,33.0,29.74,SSW,197,8.1,0.0,84,0.00,CLR,CLR,0.00,0.0,WeatherDisplay:10.37,2013-10-30 08:21:00,
2013-10-30 01:26:00,36.9,32.8,29.74,SSW,197,8.1,0.0,85,0.00,CLR,CLR,0.00,0.0,WeatherDisplay:10.37,2013-10-30 08:26:00,
2013-10-30 01:31:00,36.9,32.8,29.74,SSW,197,8.1,0.0,85,0.00,CLR,CLR,0.00,0.0,WeatherDisplay:10.37,2013-10-30 08:31:00,
2013-10-30 01:36:00,36.9,32.8,29.74,SSW,197,8.1,0.0,85,0.00,CLR,CLR,0.00,0.0,WeatherDisplay:10.37,2013-10-30 08:36:00,
2013-10-30 01:41:00,36.9,32.8,29.74,SSW,197,8.1,0.0,85,0.00,CLR,CLR,0.00,0.0,WeatherDisplay:10.37,2013-10-30 08:41:00,
2013-10-30 01:46:00,36.9,32.8,29.74,SSW,197,8.1,0.0,85,0.00,CLR,CLR,0.00,0.0,WeatherDisplay:10.37,2013-10-30 08:46:00,
2013-10-30 01:51:00,36.9,32.8,29.74,SSW,197,8.1,0.0,85,0.00,CLR,CLR,0.00,0.0,WeatherDisplay:10.37,2013-10-30 08:51:00,
2013-10-30 01:56:00,36.9,32.8,29.74,SSW,197,8.1,0.0,85,0.00,CLR,CLR,0.00,0.0,WeatherDisplay:10.37,2013-10-30 08:56:00,
2013-10-30 02:01:00,36.9,32.8,29.74,SSW,197,8.1,0.0,85,0.00,CLR,CLR,0.00,0.0,WeatherDisplay:10.37,2013-10-30 09:01:00,
2013-10-30 02:06:00,36.9,32.8,29.74,SSW,197,8.1,0.0,85,0.00,CLR,CLR,0.00,0.0,WeatherDisplay:10.37,2013-10-30 09:06:00,
2013-10-30 02:11:00,36.9,32.8,29.74,SSW,197,8.1,0.0,85,0.00,CLR,CLR,0.00,0.0,WeatherDisplay:10.37,2013-10-30 09:11:00,
2013-10-30 02:16:00,36.9,32.8,29.74,SSW,197,8.1,0.0,85,0.00,CLR,CLR,0.00,0.0,WeatherDisplay:10.37,2013-10-30 09:16:00,
2013-10-30 02:21:00,36.9,32.8,29.74,SSW,197,8.1,0.0,85,0.00,CLR,CLR,0.00,0.0,WeatherDisplay:10.37,2013-10-30 09:21:00,
2013-10-30 02:26:00,36.9,32.8,29.74,SSW,197,8.1,0.0,85,0.00,CLR,CLR,0.00,0.0,WeatherDisplay:10.37,2013-10-30 09:26:00,
2013-10-30 02:31:00,36.9,32.8,29.74,SSW,197,8.1,0.0,85,0.00,CLR,CLR,0.00,0.0,WeatherDisplay:10.37,2013-10-30 09:31:00,
2013-10-30 02:36:00,36.9,32.8,29.74,SSW,197,8.1,0.0,85,0.00,CLR,CLR,0.00,0.0,WeatherDisplay:10.37,2013-10-30 09:36:00,
2013-10-30 02:41:00,36.9,32.8,29.74,SSW,197,8.1,0.0,85,0.00,CLR,CLR,0.00,0.0,WeatherDisplay:10.37,2013-10-30 09:41:00,
2013-10-30 02:46:00,36.9,32.8,29.74,SSW,197,8.1,0.0,85,0.00,CLR,CLR,0.00,0.0,WeatherDisplay:10.37,2013-10-30 09:46:00,
2013-10-30 02:51:00,36.9,32.8,29.74,SSW,197,8.1,0.0,85,0.00,CLR,CLR,0.00,0.0,WeatherDisplay:10.37,2013-10-30 09:51:00,
2013-10-30 02:56:00,36.9,32.8,29.74,SSW,197,8.1,0.0,85,0.00,CLR,CLR,0.00,0.0,WeatherDisplay:10.37,2013-10-30 09:56:00,
2013-10-30 03:01:00,36.9,32.8,29.74,SSW,197,8.1,0.0,85,0.00,CLR,CLR,0.00,0.0,WeatherDisplay:10.37,2013-10-30 10:01:00,
2013-10-30 03:06:00,36.9,32.8,29.74,SSW,197,8.1,0.0,85,0.00,CLR,CLR,0.00,0.0,WeatherDisplay:10.37,2013-10-30 10:06:00,
2013-10-30 03:11:00,36.9,32.8,29.74,SSW,197,8.1,0.0,85,0.00,CLR,CLR,0.00,0.0,WeatherDisplay:10.37,2013-10-30 10:11:00,
2013-10-30 03:16:00,36.9,32.8,29.74,SSW,197,8.1,0.0,85,0.00,CLR,CLR,0.00,0.0,WeatherDisplay:10.37,2013-10-30 10:16:00,
2013-10-30 03:21:00,36.9,32.8,29.74,SSW,197,8.1,0.0,85,0.00,CLR,CLR,0.00,0.0,WeatherDisplay:10.37,2013-10-30 10:21:00,
2013-10-30 03:26:00,36.9,32.8,29.74,SSW,197,8.1,0.0,85,0.00,CLR,CLR,0.00,0.0,WeatherDisplay:10.37,2013-10-30 10:26:00,
2013-10-30 03:31:00,36.9,32.8,29.74,SSW,197,8.1,0.0,85,0.00,CLR,CLR,0.00,0.0,WeatherDisplay:10.37,2013-10-30 10:31:00,
2013-10-30 03:36:00,36.9,32.8,29.74,SSW,197,8.1,0.0,85,0.00,CLR,CLR,0.00,0.0,WeatherDisplay:10.37,2013-10-30 10:36:00,
2013-10-30 03:41:00,36.9,32.8,29.74,SSW,197,8.1,0.0,85,0.00,CLR,CLR,0.00,0.0,WeatherDisplay:10.37,2013-10-30 10:41:00,
2013-10-30 03:46:00,36.9,32.8,29.74,SSW,197,8.1,0.0,85,0.00,CLR,CLR,0.00,0.0,WeatherDisplay:10.37,2013-10-30 10:46:00,
2013-10-30 03:51:00,36.9,32.8,29.74,SSW,197,8.1,0.0,85,0.00,CLR,CLR,0.00,0.0,WeatherDisplay:10.37,2013-10-30 10:51:00,
2013-10-30 03:56:00,36.9,32.8,29.74,SSW,197,8.1,0.0,85,0.00,CLR,CLR,0.00,0.0,WeatherDisplay:10.37,2013-10-30 10:56:00,
2013-10-30 04:01:00,41.5,37.1,29.74,SSW,197,8.1,0.0,84,0.00,CLR,CLR,0.00,0.0,WeatherDisplay:10.37,2013-10-30 11:01:00,
2013-10-30 04:06:00,41.5,37.1,29.74,SSW,197,8.1,0.0,84,0.00,CLR,CLR,0.00,0.0,WeatherDisplay:10.37,2013-10-30 11:06:00,
2013-10-30 04:11:00,41.5,37.1,29.74,SSW,197,8.1,0.0,84,0.00,CLR,CLR,0.00,0.0,WeatherDisplay:10.37,2013-10-30 11:11:00,
2013-10-30 04:16:00,41.5,37.1,29.74,SSW,197,8.1,0.0,84,0.00,CLR,CLR,0.00,0.0,WeatherDisplay:10.37,2013-10-30 11:16:00,
2013-10-30 04:21:00,41.5,37.1,29.74,SSW,197,8.1,0.0,84,0.00,CLR,CLR,0.00,0.0,WeatherDisplay:10.37,2013-10-30 11:21:00,
2013-10-30 04:26:00,42.1,37.6,29.74,SSW,197,8.1,0.0,84,0.00,CLR,CLR,0.00,0.0,WeatherDisplay:10.37,2013-10-30 11:26:00,
2013-10-30 04:31:00,42.1,37.6,29.74,SSW,197,8.1,0.0,84,0.00,CLR,CLR,0.00,0.0,WeatherDisplay:10.37,2013-10-30 11:31:00,
2013-10-30 04:36:00,42.1,37.6,29.77,SSW,197,8.1,0.0,84,0.00,CLR,CLR,0.00,0.0,WeatherDisplay:10.37,2013-10-30 11:36:00,
2013-10-30 04:41:00,42.1,37.6,29.77,SSW,197,8.1,0.0,84,0.00,CLR,CLR,0.00,0.0,WeatherDisplay:10.37,2013-10-30 11:41:00,
2013-10-30 04:46:00,42.1,37.6,29.77,SSW,197,8.1,0.0,84,0.00,CLR,CLR,0.00,0.0,WeatherDisplay:10.37,2013-10-30 11:46:00,
2013-10-30 04:51:00,42.8,38.3,29.77,SSW,197,8.1,0.0,84,0.00,CLR,CLR,0.00,0.0,WeatherDisplay:10.37,2013-10-30 11:51:00,
2013-10-30 04:56:00,42.6,38.1,29.77,SSW,197,8.1,0.0,84,0.00,CLR,CLR,0.00,0.0,WeatherDisplay:10.37,2013-10-30 11:56:00,
2013-10-30 05:01:00,42.6,38.1,29.77,SSW,197,8.1,0.0,84,0.00,CLR,CLR,0.00,0.0,WeatherDisplay:10.37,2013-10-30 12:01:00,
2013-10-30 05:06:00,42.6,38.1,29.77,SSW,197,8.1,0.0,84,0.00,CLR,CLR,0.00,0.0,WeatherDisplay:10.37,2013-10-30 12:06:00,
2013-10-30 05:11:00,42.6,38.1,29.77,SSW,197,8.1,0.0,84,0.00,CLR,CLR,0.00,0.0,WeatherDisplay:10.37,2013-10-30 12:11:00,
2013-10-30 05:16:00,42.6,38.1,29.77,SSW,197,8.1,0.0,84,0.00,CLR,CLR,0.00,0.0,WeatherDisplay:10.37,2013-10-30 12:16:00,
2013-10-30 05:21:00,42.6,38.1,29.77,SSW,197,8.1,0.0,84,0.00,CLR,CLR,0.00,0.0,WeatherDisplay:10.37,2013-10-30 12:21:00,
2013-10-30 05:26:00,42.6,38.1,29.77,SSW,197,8.1,0.0,84,0.00,CLR,CLR,0.00,0.0,WeatherDisplay:10.37,2013-10-30 12:26:00,
2013-10-30 05:31:00,42.6,38.1,29.77,SSW,197,8.1,0.0,84,0.00,CLR,CLR,0.00,0.0,WeatherDisplay:10.37,2013-10-30 12:31:00,
2013-10-30 05:36:00,42.6,38.1,29.77,SSW,197,8.1,0.0,84,0.00,CLR,CLR,0.00,0.0,WeatherDisplay:10.37,2013-10-30 12:36:00,
2013-10-30 05:41:00,42.6,38.1,29.77,SSW,197,8.1,0.0,84,0.00,CLR,CLR,0.00,0.0,WeatherDisplay:10.37,2013-10-30 12:41:00,
2013-10-30 05:46:00,43.0,38.5,29.77,SSW,197,8.1,0.0,84,0.00,CLR,CLR,0.00,0.0,WeatherDisplay:10.37,2013-10-30 12:46:00,
2013-10-30 05:51:00,43.0,38.5,29.77,SSW,197,8.1,0.0,84,0.00,CLR,CLR,0.00,0.0,WeatherDisplay:10.37,2013-10-30 12:51:00,
2013-10-30 05:56:00,43.0,38.5,29.77,SSW,197,8.1,0.0,84,0.00,CLR,CLR,0.00,0.0,WeatherDisplay:10.37,2013-10-30 12:56:00,
2013-10-30 06:01:00,43.0,38.5,29.77,SSW,197,8.1,0.0,84,0.00,CLR,CLR,0.00,0.0,WeatherDisplay:10.37,2013-10-30 13:01:00,
2013-10-30 06:06:00,43.0,38.5,29.77,SSW,197,8.1,0.0,84,0.00,CLR,CLR,0.00,0.0,WeatherDisplay:10.37,2013-10-30 13:06:00,
2013-10-30 06:11:00,43.0,38.5,29.77,SSW,197,8.1,0.0,84,0.00,CLR,CLR,0.00,0.0,WeatherDisplay:10.37,2013-10-30 13:11:00,
2013-10-30 06:16:00,43.0,38.5,29.80,SSW,197,8.1,0.0,84,0.00,CLR,CLR,0.00,0.0,WeatherDisplay:10.37,2013-10-30 13:16:00,
2013-10-30 06:21:00,43.0,38.5,29.80,SSW,197,8.1,0.0,84,0.00,CLR,CLR,0.00,0.0,WeatherDisplay:10.37,2013-10-30 13:21:00,
2013-10-30 06:26:00,43.0,38.5,29.80,SSW,197,8.1,0.0,84,0.00,CLR,CLR,0.00,0.0,WeatherDisplay:10.37,2013-10-30 13:26:00,
2013-10-30 06:31:00,43.0,38.5,29.80,SSW,197,8.1,0.0,84,0.00,CLR,CLR,0.00,0.0,WeatherDisplay:10.37,2013-10-30 13:31:00,
2013-10-30 06:36:00,43.0,38.5,29.80,SSW,197,8.1,0.0,84,0.00,CLR,CLR,0.00,0.0,WeatherDisplay:10.37,2013-10-30 13:36:00,
2013-10-30 06:41:00,43.0,38.5,29.80,SSW,197,8.1,0.0,84,0.00,CLR,CLR,0.00,0.0,WeatherDisplay:10.37,2013-10-30 13:41:00,
2013-10-30 06:46:00,43.0,38.5,29.80,SSW,197,8.1,0.0,84,0.00,CLR,CLR,0.00,0.0,WeatherDisplay:10.37,2013-10-30 13:46:00,
2013-10-30 06:51:00,43.0,38.5,29.80,SSW,197,8.1,0.0,84,0.00,CLR,CLR,0.00,0.0,WeatherDisplay:10.37,2013-10-30 13:51:00,
2013-10-30 06:56:00,43.0,38.5,29.80,SSW,197,8.1,0.0,84,0.00,CLR,CLR,0.00,0.0,WeatherDisplay:10.37,2013-10-30 13:56:00,
2013-10-30 07:01:00,43.0,38.5,29.80,SSW,197,8.1,0.0,84,0.00,CLR,CLR,0.00,0.0,WeatherDisplay:10.37,2013-10-30 14:01:00,
2013-10-30 07:06:00,43.0,38.5,29.80,SSW,197,8.1,0.0,84,0.00,CLR,CLR,0.00,0.0,WeatherDisplay:10.37,2013-10-30 14:06:00,
2013-10-30 07:11:00,44.6,39.8,29.80,SSW,197,8.1,0.0,83,0.00,CLR,CLR,0.00,0.0,WeatherDisplay:10.37,2013-10-30 14:11:00,
2013-10-30 07:16:00,44.6,39.8,29.80,SSW,197,8.1,0.0,83,0.00,CLR,CLR,0.00,0.0,WeatherDisplay:10.37,2013-10-30 14:16:00,
2013-10-30 07:21:00,44.8,39.9,29.80,SSW,197,8.1,0.0,83,0.00,CLR,CLR,0.00,0.0,WeatherDisplay:10.37,2013-10-30 14:21:00,
2013-10-30 07:26:00,44.8,39.9,29.80,East,79,8.1,0.0,83,0.00,CLR,CLR,0.00,0.0,WeatherDisplay:10.37,2013-10-30 14:26:00,
2013-10-30 07:31:00,44.8,39.9,29.80,East,90,8.1,0.0,83,0.00,CLR,CLR,0.00,0.0,WeatherDisplay:10.37,2013-10-30 14:31:00,
2013-10-30 07:36:00,44.8,39.9,29.80,East,90,8.1,0.0,83,0.00,CLR,CLR,0.00,0.0,WeatherDisplay:10.37,2013-10-30 14:36:00,
2013-10-30 07:41:00,44.8,39.9,29.80,East,96,8.1,0.0,83,0.00,CLR,CLR,0.00,0.0,WeatherDisplay:10.37,2013-10-30 14:41:00,
2013-10-30 07:46:00,44.8,39.9,29.80,East,96,8.1,0.0,83,0.00,CLR,CLR,0.00,0.0,WeatherDisplay:10.37,2013-10-30 14:46:00,
2013-10-30 07:51:00,44.8,39.9,29.80,East,96,8.1,0.0,83,0.00,CLR,CLR,0.00,0.0,WeatherDisplay:10.37,2013-10-30 14:51:00,
2013-10-30 07:56:00,44.8,39.9,29.80,East,96,8.1,0.0,83,0.00,CLR,CLR,0.00,0.0,WeatherDisplay:10.37,2013-10-30 14:56:00,
2013-10-30 08:01:00,44.8,39.9,29.80,East,96,8.1,0.0,83,0.00,CLR,CLR,0.00,0.0,WeatherDisplay:10.37,2013-10-30 15:01:00,
2013-10-30 08:06:00,44.8,39.9,29.80,East,96,8.1,0.0,83,0.00,CLR,CLR,0.00,0.0,WeatherDisplay:10.37,2013-10-30 15:06:00,
2013-10-30 08:11:00,45.3,40.5,29.80,East,96,8.1,0.0,83,0.00,CLR,CLR,0.00,0.0,WeatherDisplay:10.37,2013-10-30 15:11:00,
2013-10-30 08:16:00,45.3,40.5,29.80,East,96,8.1,0.0,83,0.00,CLR,CLR,0.00,0.0,WeatherDisplay:10.37,2013-10-30 15:16:00,
2013-10-30 08:21:00,45.5,40.3,29.80,East,97,8.1,0.0,82,0.00,CLR,CLR,0.00,0.0,WeatherDisplay:10.37,2013-10-30 15:21:00,
2013-10-30 08:26:00,45.5,40.3,29.80,East,97,8.1,0.0,82,0.00,CLR,CLR,0.00,0.0,WeatherDisplay:10.37,2013-10-30 15:26:00,
2013-10-30 08:31:00,45.9,40.7,29.80,East,97,8.1,0.0,82,0.00,CLR,CLR,0.00,0.0,WeatherDisplay:10.37,2013-10-30 15:31:00,
2013-10-30 08:36:00,46.2,41.0,29.80,ESE,105,8.1,0.0,82,0.00,CLR,CLR,0.00,0.0,WeatherDisplay:10.37,2013-10-30 15:36:00,
2013-10-30 08:41:00,46.2,41.0,29.80,ESE,105,8.1,0.0,82,0.00,CLR,CLR,0.00,0.0,WeatherDisplay:10.37,2013-10-30 15:41:00,
2013-10-30 08:46:00,46.2,41.0,29.80,North,0,8.1,0.0,82,0.00,CLR,CLR,0.00,0.0,WeatherDisplay:10.37,2013-10-30 15:46:00,
2013-10-30 08:51:00,32.0,-40.6,29.80,North,0,8.1,0.0,3,0.00,CLR,CLR,0.00,0.0,WeatherDisplay:10.37,2013-10-30 15:51:00,
2013-10-30 08:56:00,32.0,-40.6,29.80,North,0,8.1,0.0,3,0.00,CLR,CLR,0.00,0.0,WeatherDisplay:10.37,2013-10-30 15:56:00,
2013-10-30 09:01:00,32.0,-40.6,29.80,North,0,8.1,0.0,3,0.00,CLR,CLR,0.00,0.0,WeatherDisplay:10.37,2013-10-30 16:01:00,
2013-10-30 09:06:00,32.0,-40.6,29.80,North,0,8.1,0.0,3,0.00,CLR,CLR,0.00,0.0,WeatherDisplay:10.37,2013-10-30 16:06:00,
2013-10-30 09:11:00,32.0,-40.6,29.80,North,0,8.1,0.0,3,0.00,CLR,CLR,0.00,0.0,WeatherDisplay:10.37,2013-10-30 16:11:00,
2013-10-30 09:16:00,32.0,-40.6,29.80,North,0,8.1,0.0,3,0.00,CLR,CLR,0.00,0.0,WeatherDisplay:10.37,2013-10-30 16:16:00,
2013-10-30 09:21:00,32.0,-40.6,29.80,North,0,8.1,0.0,3,0.00,CLR,CLR,0.00,0.0,WeatherDisplay:10.37,2013-10-30 16:21:00,
2013-10-30 09:26:00,32.0,-40.6,29.80,North,0,8.1,0.0,3,0.00,CLR,CLR,0.00,0.0,WeatherDisplay:10.37,2013-10-30 16:26:00,
2013-10-30 09:31:00,32.0,-40.6,29.80,North,0,8.1,0.0,3,0.00,CLR,CLR,0.00,0.0,WeatherDisplay:10.37,2013-10-30 16:31:00,
2013-10-30 09:36:00,32.0,-40.6,29.80,North,0,8.1,0.0,3,0.00,CLR,CLR,0.00,0.0,WeatherDisplay:10.37,2013-10-30 16:36:00,
2013-10-30 09:41:00,32.0,-40.6,29.80,North,0,8.1,0.0,3,0.00,CLR,CLR,0.00,0.0,WeatherDisplay:10.37,2013-10-30 16:41:00,
2013-10-30 09:46:00,32.0,-40.6,29.80,North,0,8.1,0.0,3,0.00,CLR,CLR,0.00,0.0,WeatherDisplay:10.37,2013-10-30 16:46:00,
2013-10-30 09:51:00,49.5,43.2,29.80,North,0,8.1,0.0,79,0.00,CLR,CLR,0.00,0.0,WeatherDisplay:10.37,2013-10-30 16:51:00,
2013-10-30 09:56:00,49.8,43.2,29.80,East,101,8.1,0.0,78,0.00,CLR,CLR,0.00,0.0,WeatherDisplay:10.37,2013-10-30 16:56:00,
2013-10-30 10:01:00,49.8,43.2,29.80,East,101,8.1,0.0,78,0.00,CLR,CLR,0.00,0.0,WeatherDisplay:10.37,2013-10-30 17:01:00,
2013-10-30 10:06:00,49.8,43.2,29.80,East,101,8.1,0.0,78,0.00,CLR,CLR,0.00,0.0,WeatherDisplay:10.37,2013-10-30 17:06:00,
2013-10-30 10:11:00,49.8,43.2,29.80,East,101,8.1,0.0,78,0.00,CLR,CLR,0.00,0.0,WeatherDisplay:10.37,2013-10-30 17:11:00,
2013-10-30 10:16:00,49.8,43.2,29.80,East,101,8.1,0.0,78,0.00,CLR,CLR,0.00,0.0,WeatherDisplay:10.37,2013-10-30 17:16:00,
2013-10-30 10:21:00,49.8,43.2,29.80,East,101,8.1,0.0,78,0.00,CLR,CLR,0.00,0.0,WeatherDisplay:10.37,2013-10-30 17:21:00,
2013-10-30 10:26:00,49.8,43.2,29.80,East,88,8.1,0.0,78,0.00,CLR,CLR,0.00,0.0,WeatherDisplay:10.37,2013-10-30 17:26:00,
2013-10-30 10:31:00,49.8,43.2,29.80,East,88,8.1,0.0,78,0.00,CLR,CLR,0.00,0.0,WeatherDisplay:10.37,2013-10-30 17:31:00,
2013-10-30 10:36:00,49.8,43.2,29.80,East,88,8.1,0.0,78,0.00,CLR,CLR,0.00,0.0,WeatherDisplay:10.37,2013-10-30 17:36:00,
2013-10-30 10:41:00,49.8,43.2,29.80,East,88,8.1,0.0,78,0.00,CLR,CLR,0.00,0.0,WeatherDisplay:10.37,2013-10-30 17:41:00,
2013-10-30 10:46:00,32.0,-40.6,29.80,North,0,8.1,0.0,3,0.00,CLR,CLR,0.00,0.0,WeatherDisplay:10.37,2013-10-30 17:46:00,
2013-10-30 10:51:00,32.0,-40.6,29.80,North,0,8.1,0.0,3,0.00,CLR,CLR,0.00,0.0,WeatherDisplay:10.37,2013-10-30 17:51:00,
2013-10-30 10:56:00,32.0,-40.6,29.80,North,0,8.1,0.0,3,0.00,CLR,CLR,0.00,0.0,WeatherDisplay:10.37,2013-10-30 17:56:00,
2013-10-30 11:01:00,32.0,-40.6,29.80,North,0,8.1,0.0,3,0.00,CLR,CLR,0.00,0.0,WeatherDisplay:10.37,2013-10-30 18:01:00,
2013-10-30 11:06:00,32.0,-40.6,29.80,North,0,8.1,0.0,3,0.00,CLR,CLR,0.00,0.0,WeatherDisplay:10.37,2013-10-30 18:06:00,
2013-10-30 11:11:00,32.0,-40.6,29.80,North,0,8.1,0.0,3,0.00,CLR,CLR,0.00,0.0,WeatherDisplay:10.37,2013-10-30 18:11:00,
2013-10-30 11:16:00,53.6,43.7,29.80,SE,136,8.1,0.0,69,0.00,CLR,CLR,0.00,0.0,WeatherDisplay:10.37,2013-10-30 18:16:00,
2013-10-30 11:21:00,53.6,43.7,29.80,SE,136,8.1,0.0,69,0.00,CLR,CLR,0.00,0.0,WeatherDisplay:10.37,2013-10-30 18:21:00,
2013-10-30 11:26:00,53.6,43.7,29.80,SE,136,8.1,0.0,69,0.00,CLR,CLR,0.00,0.0,WeatherDisplay:10.37,2013-10-30 18:26:00,
2013-10-30 11:31:00,54.5,43.8,29.80,SE,136,8.1,0.0,67,0.00,CLR,CLR,0.00,0.0,WeatherDisplay:10.37,2013-10-30 18:31:00,
2013-10-30 11:36:00,54.5,43.8,29.80,North,0,8.1,0.0,67,0.00,CLR,CLR,0.00,0.0,WeatherDisplay:10.37,2013-10-30 18:36:00,
2013-10-30 11:41:00,54.5,43.8,29.80,North,0,8.1,0.0,67,0.00,CLR,CLR,0.00,0.0,WeatherDisplay:10.37,2013-10-30 18:41:00,
2013-10-30 11:46:00,54.5,43.8,29.80,North,0,8.1,0.0,67,0.00,CLR,CLR,0.00,0.0,WeatherDisplay:10.37,2013-10-30 18:46:00,
2013-10-30 11:51:00,54.5,43.8,29.80,ENE,62,8.1,0.0,67,0.00,CLR,CLR,0.00,0.0,WeatherDisplay:10.37,2013-10-30 18:51:00,
2013-10-30 11:56:00,54.5,43.8,29.80,ENE,62,8.1,0.0,67,0.00,CLR,CLR,0.00,0.0,WeatherDisplay:10.37,2013-10-30 18:56:00,
2013-10-30 12:01:00,54.5,43.8,29.80,NE,45,8.1,0.0,67,0.00,CLR,CLR,0.00,0.0,WeatherDisplay:10.37,2013-10-30 19:01:00,
2013-10-30 12:06:00,54.5,43.8,29.80,East,84,8.1,0.0,67,0.00,CLR,CLR,0.00,0.0,WeatherDisplay:10.37,2013-10-30 19:06:00,
2013-10-30 12:11:00,54.5,43.8,29.80,East,84,8.1,0.0,67,0.00,CLR,CLR,0.00,0.0,WeatherDisplay:10.37,2013-10-30 19:11:00,
2013-10-30 12:16:00,56.7,44.2,29.80,ESE,120,8.1,0.0,63,0.00,CLR,CLR,0.00,0.0,WeatherDisplay:10.37,2013-10-30 19:16:00,
2013-10-30 12:21:00,56.7,44.2,29.80,ESE,120,8.1,0.0,63,0.00,CLR,CLR,0.00,0.0,WeatherDisplay:10.37,2013-10-30 19:21:00,
2013-10-30 12:26:00,56.7,44.2,29.80,ESE,120,8.1,0.0,63,0.00,CLR,CLR,0.00,0.0,WeatherDisplay:10.37,2013-10-30 19:26:00,
2013-10-30 12:31:00,56.7,44.2,29.80,ESE,120,8.1,0.0,63,0.00,CLR,CLR,0.00,0.0,WeatherDisplay:10.37,2013-10-30 19:31:00,
2013-10-30 12:36:00,56.7,44.2,29.80,ESE,120,8.1,0.0,63,0.00,CLR,CLR,0.00,0.0,WeatherDisplay:10.37,2013-10-30 19:36:00,
2013-10-30 12:41:00,56.7,44.2,29.80,North,0,8.1,0.0,63,0.00,CLR,CLR,0.00,0.0,WeatherDisplay:10.37,2013-10-30 19:41:00,
2013-10-30 12:46:00,56.7,44.2,29.80,North,0,8.1,0.0,63,0.00,CLR,CLR,0.00,0.0,WeatherDisplay:10.37,2013-10-30 19:46:00,
2013-10-30 12:51:00,56.7,44.2,29.80,North,0,8.1,0.0,63,0.00,CLR,CLR,0.00,0.0,WeatherDisplay:10.37,2013-10-30 19:51:00,
2013-10-30 12:56:00,56.7,44.2,29.80,North,0,8.1,0.0,63,0.00,CLR,CLR,0.00,0.0,WeatherDisplay:10.37,2013-10-30 19:56:00,
2013-10-30 13:01:00,56.7,44.2,29.80,North,0,8.1,0.0,63,0.00,CLR,CLR,0.00,0.0,WeatherDisplay:10.37,2013-10-30 20:01:00,
2013-10-30 13:06:00,56.7,42.5,29.80,SE,129,8.1,0.0,59,0.00,CLR,CLR,0.00,0.0,WeatherDisplay:10.37,2013-10-30 20:06:00,
2013-10-30 13:11:00,56.7,42.5,29.80,SE,129,8.1,0.0,59,0.00,CLR,CLR,0.00,0.0,WeatherDisplay:10.37,2013-10-30 20:11:00,
2013-10-30 13:16:00,56.7,42.5,29.77,SE,129,8.1,0.0,59,0.00,CLR,CLR,0.00,0.0,WeatherDisplay:10.37,2013-10-30 20:16:00,
2013-10-30 13:21:00,56.7,42.5,29.77,ENE,68,8.1,0.0,59,0.00,CLR,CLR,0.00,0.0,WeatherDisplay:10.37,2013-10-30 20:21:00,
2013-10-30 13:26:00,56.7,42.5,29.77,ENE,68,8.1,0.0,59,0.00,CLR,CLR,0.00,0.0,WeatherDisplay:10.37,2013-10-30 20:26:00,
2013-10-30 13:31:00,56.7,42.5,29.77,ENE,68,8.1,0.0,59,0.00,CLR,CLR,0.00,0.0,WeatherDisplay:10.37,2013-10-30 20:31:00,
2013-10-30 13:36:00,56.7,42.5,29.77,ENE,68,8.1,0.0,59,0.00,CLR,CLR,0.00,0.0,WeatherDisplay:10.37,2013-10-30 20:36:00,
2013-10-30 13:41:00,56.7,42.5,29.77,ENE,68,8.1,0.0,59,0.00,CLR,CLR,0.00,0.0,WeatherDisplay:10.37,2013-10-30 20:41:00,
2013-10-30 13:46:00,56.1,46.1,29.80,ENE,68,8.1,0.0,69,0.00,CLR,CLR,0.00,0.0,WeatherDisplay:10.37,2013-10-30 20:46:00,
2013-10-30 13:51:00,55.9,46.3,29.80,ENE,68,8.1,0.0,70,0.00,CLR,CLR,0.00,0.0,WeatherDisplay:10.37,2013-10-30 20:51:00,
2013-10-30 13:56:00,55.9,46.3,29.80,ENE,68,8.1,0.0,70,0.00,CLR,CLR,0.00,0.0,WeatherDisplay:10.37,2013-10-30 20:56:00,
2013-10-30 14:01:00,55.9,46.3,29.80,ENE,68,8.1,0.0,70,0.00,CLR,CLR,0.00,0.0,WeatherDisplay:10.37,2013-10-30 21:01:00,
2013-10-30 14:06:00,55.9,46.3,29.80,East,83,8.1,0.0,70,0.00,CLR,CLR,0.00,0.0,WeatherDisplay:10.37,2013-10-30 21:06:00,
2013-10-30 14:11:00,55.9,46.3,29.80,NE,51,8.1,8.1,70,0.00,CLR,CLR,0.00,0.0,WeatherDisplay:10.37,2013-10-30 21:11:00,
2013-10-30 14:16:00,55.9,46.3,29.77,NE,51,8.1,8.1,70,0.00,CLR,CLR,0.00,0.0,WeatherDisplay:10.37,2013-10-30 21:16:00,
2013-10-30 14:21:00,55.9,46.3,29.77,NE,51,8.1,8.1,70,0.00,CLR,CLR,0.00,0.0,WeatherDisplay:10.37,2013-10-30 21:21:00,
2013-10-30 14:26:00,55.9,46.3,29.77,NE,51,8.1,8.1,70,0.00,CLR,CLR,0.00,0.0,WeatherDisplay:10.37,2013-10-30 21:26:00,
2013-10-30 14:31:00,55.9,46.3,29.77,NE,51,8.1,8.1,70,0.00,CLR,CLR,0.00,0.0,WeatherDisplay:10.37,2013-10-30 21:31:00,
2013-10-30 14:36:00,55.9,46.3,29.77,NE,51,8.1,8.1,70,0.00,CLR,CLR,0.00,0.0,WeatherDisplay:10.37,2013-10-30 21:36:00,
2013-10-30 14:41:00,56.5,45.7,29.77,NE,53,8.1,0.0,67,0.00,CLR,CLR,0.00,0.0,WeatherDisplay:10.37,2013-10-30 21:41:00,
2013-10-30 14:46:00,56.5,45.7,29.77,NE,53,8.1,0.0,67,0.00,CLR,CLR,0.00,0.0,WeatherDisplay:10.37,2013-10-30 21:46:00,
2013-10-30 14:51:00,56.5,45.7,29.80,NE,53,8.1,0.0,67,0.00,CLR,CLR,0.00,0.0,WeatherDisplay:10.37,2013-10-30 21:51:00,
2013-10-30 14:56:00,56.5,45.7,29.80,NE,53,8.1,0.0,67,0.00,CLR,CLR,0.00,0.0,WeatherDisplay:10.37,2013-10-30 21:56:00,
2013-10-30 15:01:00,56.5,45.7,29.77,North,9,8.1,8.1,67,0.00,CLR,CLR,0.00,0.0,WeatherDisplay:10.37,2013-10-30 22:01:00,
2013-10-30 15:06:00,56.5,45.7,29.77,North,9,8.1,8.1,67,0.00,CLR,CLR,0.00,0.0,WeatherDisplay:10.37,2013-10-30 22:06:00,
2013-10-30 15:11:00,56.5,45.7,29.77,North,9,8.1,8.1,67,0.00,CLR,CLR,0.00,0.0,WeatherDisplay:10.37,2013-10-30 22:11:00,
2013-10-30 15:16:00,56.5,45.7,29.80,North,9,8.1,8.1,67,0.00,CLR,CLR,0.00,0.0,WeatherDisplay:10.37,2013-10-30 22:16:00,
2013-10-30 15:21:00,56.5,45.7,29.80,North,9,8.1,8.1,67,0.00,CLR,CLR,0.00,0.0,WeatherDisplay:10.37,2013-10-30 22:21:00,
2013-10-30 15:26:00,56.5,45.7,29.80,North,9,8.1,8.1,67,0.00,CLR,CLR,0.00,0.0,WeatherDisplay:10.37,2013-10-30 22:26:00,
2013-10-30 15:31:00,56.5,45.7,29.80,North,9,8.1,8.1,67,0.00,CLR,CLR,0.00,0.0,WeatherDisplay:10.37,2013-10-30 22:31:00,
2013-10-30 15:36:00,56.5,45.7,29.80,North,9,8.1,8.1,67,0.00,CLR,CLR,0.00,0.0,WeatherDisplay:10.37,2013-10-30 22:36:00,
2013-10-30 15:41:00,56.5,45.7,29.80,North,9,8.1,8.1,67,0.00,CLR,CLR,0.00,0.0,WeatherDisplay:10.37,2013-10-30 22:41:00,
2013-10-30 15:46:00,56.5,45.7,29.80,North,9,8.1,8.1,67,0.00,CLR,CLR,0.00,0.0,WeatherDisplay:10.37,2013-10-30 22:46:00,
2013-10-30 15:51:00,56.5,45.7,29.80,North,9,8.1,8.1,67,0.00,CLR,CLR,0.00,0.0,WeatherDisplay:10.37,2013-10-30 22:51:00,
2013-10-30 15:56:00,56.5,45.7,29.80,North,9,8.1,8.1,67,0.00,CLR,CLR,0.00,0.0,WeatherDisplay:10.37,2013-10-30 22:56:00,
2013-10-30 16:01:00,56.5,45.7,29.77,North,9,8.1,8.1,67,0.00,CLR,CLR,0.00,0.0,WeatherDisplay:10.37,2013-10-30 23:01:00,
2013-10-30 16:06:00,56.5,45.7,29.77,ENE,72,8.1,8.1,67,0.00,CLR,CLR,0.00,0.0,WeatherDisplay:10.37,2013-10-30 23:06:00,
2013-10-30 16:11:00,56.5,45.7,29.77,ENE,72,8.1,8.1,67,0.00,CLR,CLR,0.00,0.0,WeatherDisplay:10.37,2013-10-30 23:11:00,
2013-10-30 16:16:00,56.5,45.7,29.77,ENE,72,8.1,8.1,67,0.00,CLR,CLR,0.00,0.0,WeatherDisplay:10.37,2013-10-30 23:16:00,
2013-10-30 16:21:00,56.5,45.7,29.77,ENE,72,8.1,8.1,67,0.00,CLR,CLR,0.00,0.0,WeatherDisplay:10.37,2013-10-30 23:21:00,
2013-10-30 16:26:00,56.5,45.7,29.77,East,95,8.1,8.1,67,0.00,CLR,CLR,0.00,0.0,WeatherDisplay:10.37,2013-10-30 23:26:00,
2013-10-30 16:31:00,56.5,45.7,29.77,East,95,8.1,8.1,67,0.00,CLR,CLR,0.00,0.0,WeatherDisplay:10.37,2013-10-30 23:31:00,
2013-10-30 16:36:00,56.5,45.7,29.77,East,95,8.1,8.1,67,0.00,CLR,CLR,0.00,0.0,WeatherDisplay:10.37,2013-10-30 23:36:00,
2013-10-30 16:41:00,56.5,45.7,29.77,East,95,8.1,8.1,67,0.00,CLR,CLR,0.00,0.0,WeatherDisplay:10.37,2013-10-30 23:41:00,
2013-10-30 16:46:00,56.5,45.7,29.80,East,95,8.1,8.1,67,0.00,CLR,CLR,0.00,0.0,WeatherDisplay:10.37,2013-10-30 23:46:00,
2013-10-30 16:51:00,56.5,45.7,29.80,East,95,8.1,8.1,67,0.00,CLR,CLR,0.00,0.0,WeatherDisplay:10.37,2013-10-30 23:51:00,
2013-10-30 16:56:00,56.5,45.7,29.80,East,95,8.1,8.1,67,0.00,CLR,CLR,0.00,0.0,WeatherDisplay:10.37,2013-10-30 23:56:00,
2013-10-30 17:01:00,56.5,45.7,29.80,East,95,8.1,8.1,67,0.00,CLR,CLR,0.00,0.0,WeatherDisplay:10.37,2013-10-31 00:01:00,
2013-10-30 17:06:00,56.5,45.7,29.80,East,95,8.1,8.1,67,0.00,CLR,CLR,0.00,0.0,WeatherDisplay:10.37,2013-10-31 00:06:00,
2013-10-30 17:11:00,56.5,45.7,29.80,East,95,8.1,8.1,67,0.00,CLR,CLR,0.00,0.0,WeatherDisplay:10.37,2013-10-31 00:11:00,
2013-10-30 17:16:00,56.5,45.7,29.80,East,95,8.1,8.1,67,0.00,CLR,CLR,0.00,0.0,WeatherDisplay:10.37,2013-10-31 00:16:00,
2013-10-30 17:21:00,56.5,45.7,29.80,NE,52,8.1,0.0,67,0.00,CLR,CLR,0.00,0.0,WeatherDisplay:10.37,2013-10-31 00:21:00,
2013-10-30 17:26:00,56.5,45.7,29.80,NE,52,8.1,0.0,67,0.00,CLR,CLR,0.00,0.0,WeatherDisplay:10.37,2013-10-31 00:26:00,
2013-10-30 17:31:00,56.5,45.7,29.80,NE,52,8.1,0.0,67,0.00,CLR,CLR,0.00,0.0,WeatherDisplay:10.37,2013-10-31 00:31:00,
2013-10-30 17:36:00,52.9,46.2,29.80,ENE,59,8.1,0.0,78,0.00,CLR,CLR,0.00,0.0,WeatherDisplay:10.37,2013-10-31 00:36:00,
2013-10-30 17:41:00,52.9,46.2,29.80,ENE,59,8.1,0.0,78,0.00,CLR,CLR,0.00,0.0,WeatherDisplay:10.37,2013-10-31 00:41:00,
2013-10-30 17:46:00,52.9,46.2,29.80,ENE,75,8.1,0.0,78,0.00,CLR,CLR,0.08,0.0,WeatherDisplay:10.37,2013-10-31 00:46:00,
2013-10-30 17:51:00,52.9,46.2,29.80,NE,51,8.1,8.1,78,0.00,CLR,CLR,0.08,0.0,WeatherDisplay:10.37,2013-10-31 00:51:00,
2013-10-30 17:56:00,52.9,46.2,29.80,East,83,8.1,0.0,78,0.00,CLR,CLR,0.08,0.0,WeatherDisplay:10.37,2013-10-31 00:56:00,
2013-10-30 18:01:00,52.9,46.2,29.80,East,83,8.1,0.0,78,0.00,CLR,CLR,0.12,0.0,WeatherDisplay:10.37,2013-10-31 01:01:00,
2013-10-30 18:06:00,52.9,46.2,29.80,East,83,8.1,0.0,78,0.00,CLR,CLR,0.12,0.0,WeatherDisplay:10.37,2013-10-31 01:06:00,
2013-10-30 18:11:00,52.9,46.2,29.80,East,83,8.1,0.0,78,0.00,CLR,CLR,0.12,0.0,WeatherDisplay:10.37,2013-10-31 01:11:00,
2013-10-30 18:16:00,52.9,46.2,29.80,East,83,8.1,0.0,78,0.00,CLR,CLR,0.12,0.0,WeatherDisplay:10.37,2013-10-31 01:16:00,
2013-10-30 18:21:00,52.9,46.2,29.77,East,83,8.1,0.0,78,0.00,CLR,CLR,0.12,0.0,WeatherDisplay:10.37,2013-10-31 01:21:00,
2013-10-30 18:26:00,52.9,46.2,29.77,East,83,8.1,0.0,78,0.00,CLR,CLR,0.12,0.0,WeatherDisplay:10.37,2013-10-31 01:26:00,
2013-10-30 18:31:00,52.9,46.2,29.80,East,83,8.1,0.0,78,0.00,CLR,CLR,0.12,0.0,WeatherDisplay:10.37,2013-10-31 01:31:00,
2013-10-30 18:36:00,52.9,46.2,29.80,East,83,8.1,0.0,78,0.00,CLR,CLR,0.12,0.0,WeatherDisplay:10.37,2013-10-31 01:36:00,
2013-10-30 18:41:00,52.9,46.2,29.80,East,83,8.1,0.0,78,0.00,CLR,CLR,0.12,0.0,WeatherDisplay:10.37,2013-10-31 01:41:00,
2013-10-30 18:46:00,52.9,46.2,29.80,ENE,74,8.1,0.0,78,0.00,CLR,CLR,0.16,0.0,WeatherDisplay:10.37,2013-10-31 01:46:00,
2013-10-30 18:51:00,52.9,46.2,29.80,ENE,74,8.1,0.0,78,0.00,CLR,CLR,0.16,0.0,WeatherDisplay:10.37,2013-10-31 01:51:00,
2013-10-30 18:56:00,52.9,46.2,29.80,ESE,111,8.1,0.0,78,0.00,CLR,CLR,0.16,0.0,WeatherDisplay:10.37,2013-10-31 01:56:00,
2013-10-30 19:01:00,52.9,46.2,29.80,ESE,111,8.1,0.0,78,0.00,CLR,CLR,0.16,0.0,WeatherDisplay:10.37,2013-10-31 02:01:00,
2013-10-30 19:06:00,52.9,46.2,29.80,ESE,111,8.1,0.0,78,0.00,CLR,CLR,0.16,0.0,WeatherDisplay:10.37,2013-10-31 02:06:00,
2013-10-30 19:11:00,52.5,46.2,29.80,ESE,111,8.1,0.0,79,0.00,CLR,CLR,0.16,0.0,WeatherDisplay:10.37,2013-10-31 02:11:00,
2013-10-30 19:16:00,52.5,46.2,29.80,ESE,111,8.1,0.0,79,0.00,CLR,CLR,0.16,0.0,WeatherDisplay:10.37,2013-10-31 02:16:00,
2013-10-30 19:21:00,52.5,46.2,29.80,ESE,111,8.1,0.0,79,0.00,CLR,CLR,0.16,0.0,WeatherDisplay:10.37,2013-10-31 02:21:00,
2013-10-30 19:26:00,52.5,46.2,29.80,ESE,111,8.1,0.0,79,0.00,CLR,CLR,0.16,0.0,WeatherDisplay:10.37,2013-10-31 02:26:00,
2013-10-30 19:31:00,52.5,46.2,29.80,ESE,111,8.1,0.0,79,0.00,CLR,CLR,0.16,0.0,WeatherDisplay:10.37,2013-10-31 02:31:00,
2013-10-30 19:36:00,52.5,46.2,29.80,ESE,111,8.1,0.0,79,0.00,CLR,CLR,0.16,0.0,WeatherDisplay:10.37,2013-10-31 02:36:00,
2013-10-30 19:41:00,52.5,46.2,29.80,ESE,111,8.1,0.0,79,0.00,CLR,CLR,0.16,0.0,WeatherDisplay:10.37,2013-10-31 02:41:00,
2013-10-30 19:46:00,52.5,46.2,29.80,East,90,8.1,8.1,79,0.00,CLR,CLR,0.16,0.0,WeatherDisplay:10.37,2013-10-31 02:46:00,
2013-10-30 19:51:00,52.5,46.2,29.80,East,90,8.1,8.1,79,0.00,CLR,CLR,0.16,0.0,WeatherDisplay:10.37,2013-10-31 02:51:00,
2013-10-30 19:56:00,52.5,46.2,29.80,East,90,8.1,8.1,79,0.00,CLR,CLR,0.16,0.0,WeatherDisplay:10.37,2013-10-31 02:56:00,
2013-10-30 20:01:00,52.5,46.2,29.80,East,90,8.1,8.1,79,0.00,CLR,CLR,0.16,0.0,WeatherDisplay:10.37,2013-10-31 03:01:00,
2013-10-30 20:02:00,52.5,46.2,29.80,East,90,8.1,8.1,79,0.00,CLR,CLR,0.16,0.0,WeatherDisplay:10.37,2013-10-31 03:02:00,
2013-10-30 20:07:00,52.5,46.2,29.80,East,90,8.1,8.1,79,0.00,CLR,CLR,0.16,0.0,WeatherDisplay:10.37,2013-10-31 03:07:00,
2013-10-30 20:12:00,52.5,46.2,29.80,East,90,8.1,8.1,79,0.00,CLR,CLR,0.16,0.0,WeatherDisplay:10.37,2013-10-31 03:12:00,
2013-10-30 20:17:00,52.5,46.2,29.77,East,90,8.1,8.1,79,0.00,CLR,CLR,0.16,0.0,WeatherDisplay:10.37,2013-10-31 03:17:00,
2013-10-30 20:22:00,52.5,46.2,29.77,East,90,8.1,8.1,79,0.00,CLR,CLR,0.16,0.0,WeatherDisplay:10.37,2013-10-31 03:22:00,
2013-10-30 20:27:00,52.5,46.2,29.77,East,90,8.1,8.1,79,0.00,CLR,CLR,0.16,0.0,WeatherDisplay:10.37,2013-10-31 03:27:00,
2013-10-30 20:32:00,52.5,46.2,29.77,NE,54,8.1,8.1,79,0.00,CLR,CLR,0.16,0.0,WeatherDisplay:10.37,2013-10-31 03:32:00,
2013-10-30 20:37:00,52.5,46.2,29.77,NE,54,8.1,8.1,79,0.00,CLR,CLR,0.16,0.0,WeatherDisplay:10.37,2013-10-31 03:37:00,
2013-10-30 20:42:00,52.5,46.2,29.77,NE,54,8.1,8.1,79,0.00,CLR,CLR,0.16,0.0,WeatherDisplay:10.37,2013-10-31 03:42:00,
2013-10-30 20:47:00,52.5,46.2,29.77,NE,54,8.1,8.1,79,0.00,CLR,CLR,0.16,0.0,WeatherDisplay:10.37,2013-10-31 03:47:00,
2013-10-30 20:52:00,52.5,46.2,29.77,NE,54,8.1,8.1,79,0.00,CLR,CLR,0.16,0.0,WeatherDisplay:10.37,2013-10-31 03:52:00,
2013-10-30 20:57:00,52.5,46.2,29.77,NE,54,8.1,8.1,79,0.00,CLR,CLR,0.16,0.0,WeatherDisplay:10.37,2013-10-31 03:57:00,
2013-10-30 21:01:00,52.5,46.2,29.77,NE,54,8.1,8.1,79,0.00,CLR,CLR,0.16,0.0,WeatherDisplay:10.37,2013-10-31 04:01:00,
2013-10-30 21:02:00,52.5,46.2,29.77,NE,54,8.1,8.1,79,0.00,CLR,CLR,0.16,0.0,WeatherDisplay:10.37,2013-10-31 04:02:00,
2013-10-30 21:03:00,52.5,46.2,29.77,NE,54,8.1,8.1,79,0.00,CLR,CLR,0.16,0.0,WeatherDisplay:10.37,2013-10-31 04:03:00,
2013-10-30 21:04:00,52.5,46.2,29.77,NE,54,8.1,8.1,79,0.00,CLR,CLR,0.16,0.0,WeatherDisplay:10.37,2013-10-31 04:04:00,
2013-10-30 21:09:00,52.3,47.0,29.77,ENE,73,8.1,8.1,82,0.00,CLR,CLR,0.24,0.0,WeatherDisplay:10.37,2013-10-31 04:09:00,
2013-10-30 21:14:00,52.3,47.0,29.77,ENE,73,8.1,8.1,82,0.00,CLR,CLR,0.24,0.0,WeatherDisplay:10.37,2013-10-31 04:14:00,
2013-10-30 21:19:00,52.2,46.8,29.77,ENE,73,8.1,8.1,82,0.00,CLR,CLR,0.24,0.0,WeatherDisplay:10.37,2013-10-31 04:19:00,
2013-10-30 21:24:00,52.2,46.8,29.77,ENE,73,8.1,8.1,82,0.00,CLR,CLR,0.24,0.0,WeatherDisplay:10.37,2013-10-31 04:24:00,
2013-10-30 21:29:00,52.2,46.8,29.77,ENE,73,8.1,8.1,82,0.00,CLR,CLR,0.24,0.0,WeatherDisplay:10.37,2013-10-31 04:29:00,
2013-10-30 21:34:00,51.6,46.3,29.77,NE,53,8.1,8.1,82,0.00,CLR,CLR,0.24,0.0,WeatherDisplay:10.37,2013-10-31 04:34:00,
2013-10-30 21:39:00,51.6,46.3,29.77,NE,53,8.1,8.1,82,0.00,CLR,CLR,0.24,0.0,WeatherDisplay:10.37,2013-10-31 04:39:00,
2013-10-30 21:44:00,51.4,46.1,29.77,NE,53,8.1,8.1,82,0.00,CLR,CLR,0.24,0.0,WeatherDisplay:10.37,2013-10-31 04:44:00,
2013-10-30 21:49:00,51.4,46.1,29.77,NE,53,8.1,8.1,82,0.00,CLR,CLR,0.24,0.0,WeatherDisplay:10.37,2013-10-31 04:49:00,
2013-10-30 21:54:00,51.4,46.1,29.77,NE,53,8.1,8.1,82,0.00,CLR,CLR,0.24,0.0,WeatherDisplay:10.37,2013-10-31 04:54:00,
2013-10-30 21:59:00,51.4,46.1,29.77,NE,53,8.1,8.1,82,0.00,CLR,CLR,0.24,0.0,WeatherDisplay:10.37,2013-10-31 04:59:00,
2013-10-30 22:04:00,51.4,46.1,29.77,NE,53,8.1,8.1,82,0.00,CLR,CLR,0.24,0.0,WeatherDisplay:10.37,2013-10-31 05:04:00,
2013-10-30 22:09:00,51.4,46.1,29.77,ENE,62,8.1,0.0,82,0.00,CLR,CLR,0.24,0.0,WeatherDisplay:10.37,2013-10-31 05:09:00,
2013-10-30 22:14:00,51.4,46.1,29.77,ENE,62,8.1,0.0,82,0.00,CLR,CLR,0.24,0.0,WeatherDisplay:10.37,2013-10-31 05:14:00,
2013-10-30 22:19:00,51.4,46.1,29.77,ENE,62,8.1,0.0,82,0.00,CLR,CLR,0.24,0.0,WeatherDisplay:10.37,2013-10-31 05:19:00,
2013-10-30 22:24:00,51.4,46.1,29.77,ENE,62,8.1,0.0,82,0.00,CLR,CLR,0.24,0.0,WeatherDisplay:10.37,2013-10-31 05:24:00,
2013-10-30 22:29:00,51.4,46.1,29.74,ENE,62,8.1,0.0,82,0.00,CLR,CLR,0.24,0.0,WeatherDisplay:10.37,2013-10-31 05:29:00,
2013-10-30 22:34:00,51.4,46.1,29.74,ENE,62,8.1,0.0,82,0.00,CLR,CLR,0.24,0.0,WeatherDisplay:10.37,2013-10-31 05:34:00,
2013-10-30 22:39:00,51.4,46.1,29.74,ENE,62,8.1,0.0,82,0.00,CLR,CLR,0.24,0.0,WeatherDisplay:10.37,2013-10-31 05:39:00,
2013-10-30 22:44:00,51.4,46.1,29.77,ENE,62,8.1,0.0,82,0.00,CLR,CLR,0.24,0.0,WeatherDisplay:10.37,2013-10-31 05:44:00,
2013-10-30 22:49:00,51.4,46.1,29.77,ENE,62,8.1,0.0,82,0.00,CLR,CLR,0.24,0.0,WeatherDisplay:10.37,2013-10-31 05:49:00,
2013-10-30 22:54:00,51.4,46.1,29.77,ENE,62,8.1,0.0,82,0.00,CLR,CLR,0.24,0.0,WeatherDisplay:10.37,2013-10-31 05:54:00,
2013-10-30 22:59:00,51.4,46.1,29.77,ENE,62,8.1,0.0,82,0.00,CLR,CLR,0.24,0.0,WeatherDisplay:10.37,2013-10-31 05:59:00,
2013-10-30 23:04:00,51.4,46.1,29.77,ENE,62,8.1,0.0,82,0.00,CLR,CLR,0.24,0.0,WeatherDisplay:10.37,2013-10-31 06:04:00,
2013-10-30 23:09:00,51.4,46.1,29.77,ENE,62,8.1,0.0,82,0.00,CLR,CLR,0.24,0.0,WeatherDisplay:10.37,2013-10-31 06:09:00,
2013-10-30 23:14:00,51.4,46.1,29.77,ENE,62,8.1,0.0,82,0.00,CLR,CLR,0.24,0.0,WeatherDisplay:10.37,2013-10-31 06:14:00,
2013-10-30 23:19:00,51.4,46.1,29.77,ENE,62,8.1,0.0,82,0.00,CLR,CLR,0.24,0.0,WeatherDisplay:10.37,2013-10-31 06:19:00,
2013-10-30 23:24:00,51.4,46.1,29.77,ENE,62,8.1,0.0,82,0.00,CLR,CLR,0.24,0.0,WeatherDisplay:10.37,2013-10-31 06:24:00,
2013-10-30 23:29:00,51.4,46.1,29.77,ENE,62,8.1,0.0,82,0.00,CLR,CLR,0.24,0.0,WeatherDisplay:10.37,2013-10-31 06:29:00,
2013-10-30 23:34:00,50.5,44.9,29.77,ENE,62,8.1,0.0,81,0.00,CLR,CLR,0.24,0.0,WeatherDisplay:10.37,2013-10-31 06:34:00,
2013-10-30 23:39:00,50.5,44.9,29.77,ENE,62,8.1,0.0,81,0.00,CLR,CLR,0.24,0.0,WeatherDisplay:10.37,2013-10-31 06:39:00,
2013-10-30 23:44:00,50.5,44.9,29.77,ENE,62,8.1,0.0,81,0.00,CLR,CLR,0.24,0.0,WeatherDisplay:10.37,2013-10-31 06:44:00,
2013-10-30 23:49:00,50.5,44.9,29.77,ENE,62,8.1,0.0,81,0.00,CLR,CLR,0.24,0.0,WeatherDisplay:10.37,2013-10-31 06:49:00,
2013-10-30 23:54:00,50.7,45.1,29.77,North,0,8.1,0.0,81,0.00,CLR,CLR,0.24,0.0,WeatherDisplay:10.37,2013-10-31 06:54:00,
2013-10-30 23:59:00,50.7,45.1,29.77,East,83,8.1,0.0,81,0.00,CLR,CLR,0.24,0.0,WeatherDisplay:10.37,2013-10-31 06:59:00,